Tracking 25689 objects as of 7-Jul-2022
HD Live streaming from Space Station
objects crossing your sky now

FENGYUN 1C DEB

Track FENGYUN 1C DEB now!
10-day predictions


NORAD ID: 32209
Int'l Code: 1999-025CVF
Perigee: 853.7 km
Apogee: 1,367.1 km
Inclination: 99.3 °
Period: 107.3 minutes
Semi major axis: 7481 km
RCS: 0.0093 m2 (small)
Launch date: May 10, 1999
Source: People's Republic of China (PRC)
Launch site: Taiyaun Space Center, China (TSC)

Note: This is SATELLITE DEBRIS
aabbcc
Your satellite tracking list
Your tracking list is empty




NASA's NSSDC Master Catalog

Two Line Element Set (TLE):
1 32209U 99025CVF 22186.98923224  .00000632  00000-0  85471-3 0  9998
2 32209  99.3488 201.0167 0343094 269.9577  86.2246 13.41611669731067
Source of the keplerian elements: AFSPC